Regional Weather Roundup
Issued by NWS

Home | Current Version | Previous Version | Text Only | Print | Product List | Glossary On
Versions: 1 2 3 4 5 6 7 8 9 10 11 12 13 14 15 16 17 18 19 20 21 22 23 24 25 26 27 28 29 30 31 32 33 34 35 36 37 38 39 40 41 42 43 44 45 46 47 48 49 50
000
ASUS43 KDTX 221210
RWRMI
MICHIGAN HOURLY REGIONAL WEATHER ROUNDUP
NATIONAL WEATHER SERVICE DETROIT/PONTIAC MI
800 AM EDT MON SEP 22 2014

NOTE: "FAIR" INDICATES FEW OR NO CLOUDS BELOW 12,000 FEET WITH NO
SIGNIFICANT WEATHER AND/OR OBSTRUCTION TO VISIBILITY.

MIZ047>049-052>055-059>063-066>070-074>076-081>083-221300-
SOUTHEAST LOWER MICHIGAN

CITY           SKY/WX    TMP DP  RH WIND       PRES   REMARKS
ADRIAN         CLOUDY    46  37  71 N6        30.19R
6HR MIN TEMP:  46; 6HR MAX TEMP:  48;

ALMA           CLOUDY    45  41  86 W6        30.18R
ANN ARBOR      CLOUDY    47  37  68 NW5       30.15R
BAD AXE        CLOUDY    47  40  78 NW6       30.12R
6HR MIN TEMP:  46; 6HR MAX TEMP:  48;

CARO           CLOUDY    47  42  82 W6        30.13R
DETROIT CITY   CLOUDY    51  37  58 NW7       30.14R
6HR MIN TEMP:  51; 6HR MAX TEMP:  52;

DETROIT        CLOUDY    48  37  65 NW9       30.15R
6HR MIN TEMP:  48; 6HR MAX TEMP:  49;

FLINT          CLOUDY    48  41  76 W7        30.16R
6HR MIN TEMP:  48; 6HR MAX TEMP:  49;

GROSSE ILE     CLOUDY    48  37  66 NW9       30.14R
HILLSDALE      MOCLDY    45  40  83 NW5       30.18R
6HR MIN TEMP:  45; 6HR MAX TEMP:  48;

HOWELL         CLOUDY    44  40  89 W6        30.16R
6HR MIN TEMP:  43; 6HR MAX TEMP:  46;


CITY           SKY/WX    TMP DP  RH WIND       PRES   REMARKS
JACKSON        PTCLDY    43  40  89 NW3       30.18R
6HR MIN TEMP:  43; 6HR MAX TEMP:  46;

LAMBERTVILLE   CLOUDY    48  37  66 N3        30.17R
LANSING        CLOUDY    44  39  82 W8        30.19R
6HR MIN TEMP:  42; 6HR MAX TEMP:  47;

LAPEER         CLOUDY    46  40  81 NW5       30.14R
MASON          CLOUDY    43  40  88 W6        30.18R
MONROE         CLOUDY    48  37  66 N8        30.15R
MT. CLEMENS    CLOUDY    48  38  68 W7        30.11R
6HR MIN TEMP:  48; 6HR MAX TEMP:  49;

PONTIAC        MOCLDY    45  38  76 W9        30.13R
6HR MIN TEMP:  45; 6HR MAX TEMP:  47;

PORT HOPE        N/A     50  39  66 NW9G17    30.09R
6HR MIN TEMP:  50; 6HR MAX TEMP:  52;

PORT HURON     CLOUDY    46  41  81 NW8       30.11R
TRI CITIES     MOCLDY    45  41  86 W8        30.17R
6HR MIN TEMP:  45; 6HR MAX TEMP:  49;

TROY           CLOUDY    49  38  63 W5        30.15R
SAGINAW HB     CLOUDY    46  43  87 W9        30.15R
$$
MIZ043>046-050>051-056>058-064>065-071>073-077>080-221300-
SOUTHWEST LOWER MICHIGAN

CITY           SKY/WX    TMP DP  RH WIND       PRES   REMARKS
BATTLE CREEK   CLEAR     41  37  86 W6        30.20R
6HR MIN TEMP:  41; 6HR MAX TEMP:  47;

BENTON HARBOR  MOCLDY    41  39  93 CALM      30.23R
6HR MIN TEMP:  40; 6HR MAX TEMP:  50;

BIG RAPIDS     CLEAR     41  40  97 W6        30.19R
6HR MIN TEMP:  40; 6HR MAX TEMP:  46;

COLDWATER      CLEAR     45  39  82 CALM      30.19R
6HR MIN TEMP:  44; 6HR MAX TEMP:  48;

FREMONT        FAIR      39  38  97 CALM      30.20R
HOLLAND        CLEAR     42  39  89 CALM      30.22R
6HR MIN TEMP:  40; 6HR MAX TEMP:  49;

GRAND RAPIDS   PTCLDY    44  39  82 W6        30.20R
6HR MIN TEMP:  43; 6HR MAX TEMP:  48;

IONIA          FAIR      42  40  92 W6        30.19R
KALAMAZOO      CLEAR     42  37  82 NW5       30.21R
6HR MIN TEMP:  40; 6HR MAX TEMP:  47;

LUDINGTON      MOCLDY    42  40  95 CALM      30.21R
MARSHALL       CLEAR     39  37  92 W8        30.19R WCI  33
MOUNT PLEASANT CLEAR     43  40  89 W7        30.17R
6HR MIN TEMP:  42; 6HR MAX TEMP:  47;

MUSKEGON       PTCLDY    42  37  82 CALM      30.23R
6HR MIN TEMP:  38; 6HR MAX TEMP:  49;

SOUTH HAVEN    PTCLDY    39  38  97 CALM      30.22R
$$
MIZ016>042-221300-
NORTHERN LOWER MICHIGAN

CITY           SKY/WX    TMP DP  RH WIND       PRES   REMARKS
ALPENA         CLOUDY    44  40  85 W5        30.12R
6HR MIN TEMP:  44; 6HR MAX TEMP:  47;

BEAVER ISLAND  CLEAR     45  39  81 NW5       30.16R
6HR MIN TEMP:  45; 6HR MAX TEMP:  46;

BELLAIRE       CLEAR     43  38  83 CALM      30.17R
6HR MIN TEMP:  43; 6HR MAX TEMP:  48;

CADILLAC       CLEAR     37  37  99 W5        30.16R WCI  33
CHARLEVOIX     MOCLDY    47  40  77 NW9       30.18S
6HR MIN TEMP:  47; 6HR MAX TEMP:  49;

FRANKFORT      CLEAR     41  38  89 CALM      30.19R
GAYLORD        PTCLDY    38  36  92 CALM      30.13R
6HR MIN TEMP:  38; 6HR MAX TEMP:  44;

GRAYLING       PTCLDY    40  39  97 CALM      30.15R
HARBOR SPRINGS CLEAR     42  38  84 W3        30.15R
HOUGHTON LAKE  CLOUDY    43  40  89 W7        30.15R
6HR MIN TEMP:  41; 6HR MAX TEMP:  45;

MANISTEE       CLOUDY    39  36  87 CALM      30.20R
OSCODA         CLOUDY    42  40  95 CALM      30.12R
PELLSTON       CLEAR     41  38  89 NW8       30.14R
6HR MIN TEMP:  38; 6HR MAX TEMP:  47;

ROGERS CITY    CLOUDY    46  38  74 NW6       30.12S
TRAVERSE CITY  PTCLDY    44  39  82 W7        30.17R
6HR MIN TEMP:  42; 6HR MAX TEMP:  50;

$$
MIZ007>008-015-221300-
EASTERN UPPER MICHIGAN

CITY           SKY/WX    TMP DP  RH WIND       PRES   REMARKS
KINROSS        MOCLDY    39  37  93 W7        30.11R WCI  34
6HR MIN TEMP:  39; 6HR MAX TEMP:  45;

MACKINAC ISLAN CLEAR     43  38  80 NW8       30.14R
6HR MIN TEMP:  43; 6HR MAX TEMP:  46;

NEWBERRY       PTCLDY    35  34  97 W7        30.14R WCI  29
S. S. MARIE    CLEAR     41  35  79 CALM      30.10S
6HR MIN TEMP:  41; 6HR MAX TEMP:  45;

MUNISING         N/A     37  33  85 S8        30.14R WCI  31
6HR MIN TEMP:  36; 6HR MAX TEMP:  48;

$$
MIZ004>006-011>014-085-221300-
CENTRAL UPPER MICHIGAN

CITY           SKY/WX    TMP DP  RH WIND       PRES   REMARKS
MANISTIQUE     CLEAR     35  35  99 W3        30.16R
ESCANABA       CLEAR     34  30  86 W5        30.17S WCI  30
6HR MIN TEMP:  34; 6HR MAX TEMP:  39;

MENOMINEE      CLEAR     39  36  87 W3        30.19R
6HR MIN TEMP:  37; 6HR MAX TEMP:  39;

SAWYER-GWINN   PTCLDY    36  34  93 CALM      30.14R
$$
MIZ001>003-009>011-084-221300-
WESTERN UPPER MICHIGAN

CITY           SKY/WX    TMP DP  RH WIND       PRES   REMARKS
IRON MOUNTAIN  PTCLDY    34  33  96 CALM      30.16R FOG
6HR MIN TEMP:  31; 6HR MAX TEMP:  37;

HOUGHTON       MOCLDY    49  45  86 W12       30.12S
6HR MIN TEMP:  33; 6HR MAX TEMP:  49;

COPPER HARBOR    N/A     53  44  71 NW8       30.09S
6HR MIN TEMP:  39; 6HR MAX TEMP:  53;

IRONWOOD       CLEAR     43  41  93 W5        30.16R
6HR MIN TEMP:  37; 6HR MAX TEMP:  45;

$$

ABBREVIATIONS USED IN REMARKS
   TC - TEMPERATURE IN CELSIUS
  WCI - WIND CHILL INDEX
   HX - HEAT INDEX
  VSB - VISIBILITY




USA.gov is the U.S. government's official web portal to all federal, state and local government web resources and services.